EST,Max TemperatureF,Mean TemperatureF,Min TemperatureF,Max Dew PointF,MeanDew PointF,Min DewpointF,Max Humidity, Mean Humidity, Min Humidity, Max Sea Level PressureIn, Mean Sea Level PressureIn, Min Sea Level PressureIn, Max VisibilityMiles, Mean VisibilityMiles, Min VisibilityMiles, Max Wind SpeedMPH, Mean Wind SpeedMPH, Max Gust SpeedMPH,PrecipitationIn, CloudCover, Events, WindDirDegrees
2013-2-1,42,32,21,27,13,0,85,44,20,30.39,30.17,29.91,10,10,10,23,8,30,0.00,0,,270
2013-2-2,46,31,16,37,16,7,91,58,25,30.41,30.26,30.04,10,10,10,16,2,28,0.00,2,Rain,192
2013-2-3,51,40,27,37,29,23,95,65,36,30.03,29.94,29.86,10,10,10,12,4,20,0.00,4,,262
2013-2-4,49,36,22,28,23,19,92,61,33,30.15,30.06,30.00,10,10,10,7,1,,0.00,0,,218
2013-2-5,63,48,33,37,32,27,89,62,31,30.02,29.95,29.88,10,10,10,14,3,22,0.00,2,,227
2013-2-6,64,46,28,36,27,17,95,62,17,30.27,30.12,29.98,10,10,10,13,2,17,0.00,0,,328
2013-2-7,48,40,31,43,36,26,95,82,64,30.32,30.21,29.99,10,8,4,10,5,,0.12,3,Rain,24
2013-2-8,57,48,40,45,40,28,96,79,48,30.07,29.89,29.82,10,10,5,20,11,26,0.60,5,Rain,311
2013-2-9,54,40,27,30,23,15,92,57,21,30.37,30.23,30.07,10,10,7,13,4,23,0.00,0,,304
2013-2-10,55,38,22,42,25,19,94,63,25,30.49,30.37,30.20,10,10,5,8,1,,0.06,2,Rain,129
2013-2-11,64,53,43,60,54,42,97,89,77,30.21,30.04,29.93,10,9,4,15,5,23,0.02,6,Rain,217
2013-2-12,62,52,44,53,36,20,97,58,20,30.09,30.00,29.91,10,10,1,12,4,21,0.00,1,,289
2013-2-13,48,46,44,48,44,35,97,92,68,29.95,29.77,29.64,10,7,1,9,2,,0.06,7,Rain,268
2013-2-14,52,41,30,37,32,29,99,76,44,30.08,30.00,29.85,10,10,3,8,2,,0.00,0,,262
2013-2-15,62,44,26,38,30,25,96,69,27,30.10,30.02,29.94,10,10,7,13,1,16,0.00,0,,234
2013-2-16,45,38,32,35,32,23,96,82,65,29.97,29.91,29.83,10,8,1,10,6,17,0.20,7,Rain-Snow,335
2013-2-17,40,30,21,22,14,5,86,52,24,30.28,30.11,29.94,10,10,10,17,7,29,0.00,1,,284
2013-2-18,52,34,15,26,18,12,93,60,25,30.42,30.33,30.28,10,10,10,8,2,,0.00,0,,180
2013-2-19,52,40,28,50,37,25,97,87,66,30.26,30.04,29.87,10,9,0,15,3,25,0.07,5,Fog-Rain,218
2013-2-20,53,40,26,39,22,12,97,55,20,30.14,30.06,29.98,10,10,3,10,3,23,0.00,0,,281
2013-2-21,56,39,22,28,19,11,89,52,18,30.24,30.17,30.11,10,10,10,8,1,,0.00,0,,347
2013-2-22,42,40,34,36,33,20,97,88,37,30.35,30.26,30.14,10,6,1,8,3,,0.42,7,Rain,36
2013-2-23,44,40,36,43,40,36,98,96,93,30.12,29.95,29.83,10,6,1,9,4,,0.70,8,Rain,352
2013-2-24,63,48,32,46,39,28,97,75,27,30.04,29.91,29.81,10,7,2,12,3,16,0.02,5,Rain,277
2013-2-25,42,36,30,32,25,20,96,65,44,30.23,30.14,30.05,10,10,10,9,4,16,0.00,0,,32
2013-2-26,59,46,35,58,42,27,97,88,63,30.13,29.82,29.54,10,7,0,10,6,17,0.71,7,Fog-Rain,56
2013-2-27,59,48,35,44,39,34,98,76,45,29.80,29.72,29.64,10,9,0,13,5,18,0.00,4,Fog,238
2013-2-28,50,40,32,39,30,24,97,67,36,29.87,29.78,29.71,10,10,5,13,3,20,0.00,4,,269